DateTimeUTC,F1_A11,F1_S11,BsB_S11,BsG_S11,BsR_S11,BbsB_S11,BbsG_S11,BbsR_S11,BaB_A11,BaG_A11,BaR_A11,T_S11,U_S11,P_S11,T1_A11
2020-05-17T00:00:00Z,00000380,21000600,,,,,,,,,,25.1,00.0,0676.0,31.0
2020-05-17T00:01:00Z,00000380,21000600,,,,,,,,,,25.1,00.0,0676.0,31.0
2020-05-17T00:02:00Z,00000380,21000600,,,,,,,,,,25.1,00.0,0676.0,31.0
2020-05-17T00:03:00Z,00000380,61000600,,,,,,,,,,25.1,00.0,0676.0,31.0
2020-05-17T00:04:00Z,00000380,41000600,0003.18,0001.56,0001.46,0000.33,0000.18,-000.32,0000.21,0000.21,0000.16,24.9,00.1,0676.9,31.0
2020-05-17T00:05:00Z,00000380,01000600,0001.60,0001.57,0001.65,0000.86,0000.25,0000.10,0000.21,0000.27,0000.05,24.9,00.1,0677.0,31.0
2020-05-17T00:06:00Z,00000380,01000600,0001.97,0001.96,0000.72,-000.30,0000.23,0000.15,0000.16,0000.08,0000.20,24.9,00.1,0677.0,31.0
2020-05-17T00:07:00Z,00000380,01000600,0002.45,0001.63,0001.92,0000.67,0000.11,0000.21,0000.07,-000.04,0000.12,24.8,00.1,0677.0,31.0
2020-05-17T00:08:00Z,00000380,01000600,0001.79,0001.96,0001.22,0000.39,0000.59,0000.27,0000.15,0000.21,0000.13,24.8,00.1,0677.0,31.0
2020-05-17T00:09:00Z,00000380,01000600,0002.71,0002.08,0001.20,0000.28,0000.48,0000.28,0000.12,0000.28,0000.18,24.8,00.1,0677.0,31.0
2020-05-17T00:10:00Z,00000380,01000600,0002.02,0002.00,0001.51,0000.42,0000.23,0000.71,0000.34,0000.11,0000.17,24.8,00.1,0677.0,31.0
2020-05-17T00:11:00Z,00000380,01000600,0002.36,0002.27,0000.85,0000.35,0000.30,0000.34,0000.14,0000.33,0000.03,24.8,00.2,0677.0,31.0
2020-05-17T00:12:00Z,00000380,01000600,0001.93,0002.07,0001.34,-000.22,0000.42,0000.25,0000.24,0000.27,0000.23,24.8,00.2,0677.0,31.0
2020-05-17T00:13:00Z,00000380,01000600,0002.04,0002.10,0002.30,-000.02,0000.13,0000.16,0000.22,0000.05,0000.10,24.8,00.2,0677.0,31.0
2020-05-17T00:14:00Z,00000380,01000600,0003.12,0002.02,0001.31,0000.44,0000.33,0000.20,0000.13,0000.06,0000.02,24.8,00.2,0677.0,31.0
2020-05-17T00:15:00Z,00000380,01000600,0001.92,0001.52,0000.91,0000.93,-000.17,0000.11,0000.20,0000.31,0000.10,24.8,00.2,0677.0,31.0
2020-05-17T00:16:00Z,00000380,01000600,0002.77,0001.71,0000.81,0000.59,-000.20,0000.01,0000.06,-000.02,0000.13,24.8,00.2,0677.0,31.0
2020-05-17T00:17:00Z,00000380,01000600,0001.61,0002.19,0000.65,0000.67,0000.42,-000.05,0000.15,0000.01,-000.01,24.8,00.2,0677.0,31.0
2020-05-17T00:18:00Z,00000380,01000600,0001.73,0001.73,0001.03,-000.36,0000.37,0000.46,0000.23,0000.20,0000.16,24.8,00.1,0677.0,31.1
2020-05-17T00:19:00Z,00000380,01000600,0003.06,0001.99,0000.71,0000.58,-000.11,0000.43,-000.04,0000.18,0000.19,24.8,00.2,0677.0,31.0
2020-05-17T00:20:00Z,00000380,01000600,0002.04,0001.93,0000.78,-000.39,0000.01,0000.49,0000.26,0000.10,0000.14,24.8,00.1,0677.0,31.0
2020-05-17T00:21:00Z,00000380,01000600,0001.62,0002.21,0001.12,0001.82,0000.11,0000.57,0000.07,-000.02,0000.01,24.8,00.1,0676.9,31.0
2020-05-17T00:22:00Z,00000380,01000600,0002.53,0001.56,0001.25,0000.82,0000.15,-000.09,0000.26,0000.33,0000.24,24.7,00.2,0676.9,31.0
2020-05-17T00:23:00Z,00000380,01000600,0002.03,0001.57,0001.23,0001.11,0000.43,-000.29,0000.11,0000.10,-000.04,24.7,00.2,0676.9,31.0
2020-05-17T00:24:00Z,00000380,01000600,0001.70,0002.21,0001.46,0000.06,0000.08,0000.60,0000.34,0000.24,0000.18,24.7,00.1,0677.0,31.0
2020-05-17T00:25:00Z,00000380,01000600,0002.38,0001.73,0001.20,0001.01,0000.30,0000.16,0000.02,-000.01,0000.09,24.7,00.1,0677.0,31.0
2020-05-17T00:26:00Z,00000380,01000600,0001.36,0002.52,0000.96,-000.07,0000.11,0000.25,0000.07,-000.05,-000.06,24.7,00.1,0677.0,31.0
2020-05-17T00:27:00Z,00000380,01000600,0002.52,0002.16,0000.83,0000.39,-000.08,0000.20,0000.21,0000.37,0000.28,24.7,00.2,0677.0,31.0
2020-05-17T00:28:00Z,00000380,01000600,0003.09,0001.96,0001.06,0000.68,0000.31,0000.02,0000.07,0000.17,0000.11,24.7,00.1,0677.0,31.0
2020-05-17T00:29:00Z,00000380,01000600,0002.96,0001.75,0000.77,-000.45,0000.18,-000.20,0000.17,0000.09,-000.01,24.7,00.1,0677.0,31.0
2020-05-17T00:30:00Z,00000380,01000600,0001.38,0001.71,0001.05,0000.46,0000.44,-000.03,0000.10,0000.08,0000.24,24.7,00.1,0677.0,31.0
2020-05-17T00:31:00Z,00000380,01000600,0001.25,0001.98,0001.45,0000.52,0000.19,0000.21,0000.23,0000.37,0000.15,24.7,00.2,0677.0,31.0
2020-05-17T00:32:00Z,00000380,01000600,0001.97,0001.81,0000.81,-001.07,0000.01,-000.28,0000.21,-000.07,-000.05,24.7,00.1,0677.0,31.0
2020-05-17T00:33:00Z,00000380,01000600,0001.32,0001.69,0000.81,0000.86,0000.43,0000.28,0000.02,0000.06,0000.16,24.7,00.1,0677.0,31.0
2020-05-17T00:34:00Z,00000380,01000600,0003.01,0001.31,0001.17,0000.20,0000.13,0000.55,0000.13,0000.11,0000.12,24.7,00.1,0677.0,31.0
2020-05-17T00:35:00Z,00000380,01000600,0000.87,0001.74,0001.22,0000.24,0000.30,-000.27,0000.17,0000.28,0000.01,24.7,00.1,0677.0,31.0
2020-05-17T00:36:00Z,00000380,01000600,0003.36,0001.74,0000.83,-000.00,0000.39,0000.36,0000.30,-000.02,0000.20,24.6,00.1,0677.0,31.0
2020-05-17T00:37:00Z,00000380,01000600,0002.57,0002.30,0000.86,0000.71,-000.00,-000.10,0000.11,0000.13,0000.05,24.7,00.1,0677.0,31.0
2020-05-17T00:38:00Z,00000380,01000600,0002.77,0001.83,0001.08,-000.05,0000.13,-000.18,0000.16,0000.28,0000.16,24.7,00.1,0677.0,31.0
2020-05-17T00:39:00Z,00000380,01000600,0001.88,0002.41,0001.15,0001.04,-000.14,0000.29,0000.03,0000.01,-000.04,24.6,00.1,0677.0,31.0
2020-05-17T00:40:00Z,00000380,01000600,0002.52,0001.81,0001.52,-000.34,0000.42,0000.35,0000.03,0000.08,-000.03,24.6,00.1,0677.0,31.0
2020-05-17T00:41:00Z,00000380,01000600,0000.63,0001.45,0001.06,-000.12,0000.23,-000.03,0000.21,0000.08,0000.20,24.6,00.0,0677.1,31.0
2020-05-17T00:42:00Z,00000380,01000600,0002.44,0001.56,0000.67,0000.50,0000.11,-000.22,0000.28,0000.30,0000.12,24.6,00.1,0677.1,31.0
2020-05-17T00:43:00Z,00000380,01000600,0003.03,0001.57,0000.88,0000.79,-000.09,-000.04,0000.01,0000.04,0000.08,24.6,00.0,0677.1,31.0
2020-05-17T00:44:00Z,00000380,01000600,0002.47,0002.33,0000.97,0000.03,0000.13,0000.37,0000.21,0000.18,0000.26,24.6,00.1,0677.1,31.0
2020-05-17T00:45:00Z,00000380,01000600,0002.17,0002.36,0000.72,-000.36,0000.13,0000.22,0000.27,0000.15,0000.11,24.6,00.0,0677.1,31.0
2020-05-17T00:46:00Z,00000380,01000600,0002.29,0002.00,0001.23,0000.11,0000.24,0000.19,0000.01,0000.13,0000.14,24.6,00.0,0677.0,31.0
2020-05-17T00:47:00Z,00000380,01000600,0002.27,0001.57,0001.05,0000.41,-000.01,-000.25,0000.15,0000.24,0000.10,24.6,00.1,0677.1,31.0
2020-05-17T00:48:00Z,00000380,01000600,0001.78,0001.50,0001.10,0000.79,0000.24,0000.61,0000.24,0000.07,0000.14,24.6,00.1,0677.0,31.0
2020-05-17T00:49:00Z,00000380,01000600,0002.19,0002.32,0000.82,-000.19,-000.05,-000.10,0000.23,0000.25,0000.09,24.6,00.1,0677.0,31.0
2020-05-17T00:50:00Z,00000380,01000600,0000.77,0001.54,0001.10,0000.49,0000.47,-000.03,0000.14,-000.01,0000.09,24.6,00.1,0677.0,31.0
2020-05-17T00:51:00Z,00000380,01000600,0002.29,0001.91,0000.90,-000.38,0000.39,-000.00,0000.20,0000.35,0000.28,24.6,00.1,0677.0,31.0
2020-05-17T00:52:00Z,00000380,01000600,0001.50,0001.42,0000.71,0000.37,0000.16,0000.05,0000.25,0000.04,0000.00,24.6,00.1,0677.0,31.0
2020-05-17T00:53:00Z,00000380,01000600,0001.81,0001.89,0001.49,-000.81,0000.27,0000.38,0000.12,0000.27,-000.02,24.6,00.1,0677.1,31.0
2020-05-17T00:54:00Z,00000380,01000600,0002.85,0002.15,0000.91,0000.13,0000.13,0000.38,0000.19,0000.13,0000.23,24.6,00.1,0677.1,31.0
2020-05-17T00:55:00Z,00000380,01000600,0002.51,0001.93,0000.83,0000.05,0000.01,0000.01,0000.09,0000.05,0000.20,24.6,00.1,0677.1,31.0
2020-05-17T00:56:00Z,00000380,01000600,0002.22,0001.63,0000.99,0000.22,-000.10,0000.28,0000.10,0000.18,-000.04,24.6,00.1,0677.1,31.0
2020-05-17T00:57:00Z,00000380,41000600,,,,,,,,,,24.6,00.0,0677.1,31.0
2020-05-17T00:58:00Z,00000380,61000600,,,,,,,,,,24.7,00.0,0676.1,31.0
2020-05-17T00:59:00Z,00000380,21000600,,,,,,,,,,24.8,00.0,0676.1,31.0
2020-05-17T01:00:00Z,00000380,21000600,,,,,,,,,,24.8,00.0,0676.1,31.0
2020-05-17T01:01:00Z,00000380,21000600,,,,,,,,,,24.8,00.0,0676.1,31.0
2020-05-17T01:02:00Z,00000380,21000600,,,,,,,,,,24.8,00.0,0676.1,31.0
2020-05-17T01:03:00Z,00000380,61000600,,,,,,,,,,24.8,00.0,0676.0,31.0
2020-05-17T01:04:00Z,00000380,41000600,0002.66,0001.55,0001.05,-000.12,0000.11,0000.24,0000.12,0000.09,-000.03,24.6,00.0,0677.0,31.0
2020-05-17T01:05:00Z,00000380,01000600,0001.81,0001.18,0000.36,0000.46,-000.07,0000.55,0000.09,0000.16,0000.17,24.6,00.1,0677.0,31.0
2020-05-17T01:06:00Z,00000380,01000600,0002.53,0001.77,0000.39,0001.31,0000.08,0000.08,0000.27,0000.09,0000.16,24.6,00.1,0677.0,31.0
2020-05-17T01:07:00Z,00000380,01000600,0001.55,0001.60,0000.13,0000.26,-000.16,0000.17,-000.02,0000.12,0000.14,24.6,00.1,0677.0,31.0
2020-05-17T01:08:00Z,00000380,01000600,0002.43,0001.19,0000.78,0001.17,0000.09,0000.37,0000.10,0000.22,0000.13,24.6,00.1,0677.0,31.0
2020-05-17T01:09:00Z,00000380,01000600,0001.86,0000.79,0000.35,0000.40,-000.07,-000.04,0000.08,0000.04,-000.03,24.6,00.1,0677.0,31.0
2020-05-17T01:10:00Z,00000380,01000600,0000.91,0001.13,0000.32,0001.06,-000.20,-000.16,-000.06,-000.14,-000.02,24.5,00.1,0677.0,31.0
2020-05-17T01:11:00Z,00000380,01000600,0001.72,0000.48,0000.09,0000.49,-000.17,0000.23,0000.09,0000.10,0000.10,24.5,00.1,0677.1,31.0
2020-05-17T01:12:00Z,00000380,01000600,0000.66,0000.81,0000.39,0001.20,-000.10,-000.28,0000.07,0000.04,-000.04,24.5,00.1,0677.1,31.0
2020-05-17T01:13:00Z,00000380,01000600,0001.78,0000.94,-000.34,-000.16,-000.15,-000.14,-000.04,0000.08,-000.07,24.5,00.0,0677.0,31.0
2020-05-17T01:14:00Z,00000380,01000600,0002.15,0000.84,-000.09,0000.16,-000.18,-000.02,0000.18,-000.10,0000.14,24.5,00.0,0677.0,31.0
2020-05-17T01:15:00Z,00000380,01000600,0001.20,0000.75,0000.53,0001.11,-000.32,0000.54,0000.05,0000.18,0000.08,24.5,00.0,0677.0,31.0
2020-05-17T01:16:00Z,00000380,01000600,0001.37,0001.06,0000.17,0000.16,0000.11,0000.10,0000.03,-000.08,-000.04,24.5,00.0,0677.0,31.0
2020-05-17T01:17:00Z,00000380,01000600,0001.18,0000.34,-000.27,0000.16,0000.02,-000.07,0000.10,0000.13,0000.13,24.5,00.0,0677.0,31.0
2020-05-17T01:18:00Z,00000380,01000600,0002.51,0000.56,-000.03,0000.02,-000.30,0000.32,-000.16,-000.11,-000.17,24.5,00.0,0677.0,31.0
2020-05-17T01:19:00Z,00000380,01000600,0001.93,0000.43,0000.03,-000.74,-000.30,-000.08,0000.03,0000.01,0000.05,24.5,00.0,0677.0,31.0
2020-05-17T01:20:00Z,00000380,01000600,0001.54,0000.10,0000.06,-000.45,-000.24,0000.55,0000.04,0000.04,0000.12,24.5,00.0,0677.0,31.0
2020-05-17T01:21:00Z,00000380,01000600,0000.56,0000.79,0000.10,0000.17,-000.24,0000.33,0000.20,0000.12,-000.02,24.5,00.0,0677.0,31.0
2020-05-17T01:22:00Z,00000380,01000600,-000.05,0000.12,-000.03,0000.78,-000.15,0000.45,0000.02,0000.09,0000.27,24.5,00.0,0677.0,31.0
2020-05-17T01:23:00Z,00000380,01000600,0000.31,0000.07,0000.28,0000.20,-000.32,0000.17,-000.06,-000.17,-000.32,24.5,00.0,0677.0,31.0
2020-05-17T01:24:00Z,00000380,01000600,0000.91,-000.02,0000.24,-000.15,-000.43,-000.01,0000.05,0000.16,0000.20,24.5,00.0,0677.0,31.0
2020-05-17T01:25:00Z,00000380,01000600,0001.11,0000.21,0000.19,0000.37,-000.11,0000.01,0000.03,0000.13,-000.02,24.5,00.0,0677.0,31.0
2020-05-17T01:26:00Z,00000380,01000600,0000.83,0000.30,-000.21,-000.31,-000.64,-000.16,0000.07,-000.02,0000.02,24.4,00.0,0677.0,31.0
2020-05-17T01:27:00Z,00000380,01000600,-000.02,0000.26,0000.48,-000.86,-000.25,0000.36,0000.18,0000.22,0000.14,24.4,00.0,0677.0,31.0
2020-05-17T01:28:00Z,00000380,01000600,0000.63,0000.29,0000.23,0000.55,-000.13,-000.15,0000.22,0000.22,0000.19,24.4,00.0,0677.0,31.0
2020-05-17T01:29:00Z,00000380,01000600,0001.47,0000.33,0000.12,0000.28,0000.14,0000.21,-000.04,-000.15,-000.11,24.4,00.0,0677.0,31.0
2020-05-17T01:30:00Z,00000380,01000600,0001.79,0000.32,0000.19,-000.11,0000.23,0000.01,0000.04,0000.16,0000.18,24.4,00.0,0677.0,31.0
2020-05-17T01:31:00Z,00000380,01000600,0000.82,0000.23,0000.45,-000.22,-000.28,-000.31,0000.02,0000.09,0000.01,24.4,00.0,0677.0,31.0
2020-05-17T01:32:00Z,00000380,01000600,0000.72,0000.68,0000.02,0000.34,-000.13,-000.10,-000.16,-000.27,-000.16,24.4,00.0,0677.0,31.0
2020-05-17T01:33:00Z,00000380,01000600,-000.10,0000.71,-000.20,0000.52,-000.23,0000.24,-000.02,0000.11,0000.13,24.4,00.0,0677.0,31.0
2020-05-17T01:34:00Z,00000380,01000600,0001.10,0000.54,0000.48,0000.23,-000.25,-000.30,-000.02,-000.08,-000.15,24.4,00.0,0677.0,31.0
2020-05-17T01:35:00Z,00000380,01000600,0000.87,0000.18,-000.09,-000.18,-000.24,-000.01,0000.15,0000.12,0000.04,24.4,00.0,0677.0,30.9
2020-05-17T01:36:00Z,00000380,01000600,0000.54,0000.04,0000.25,-000.53,-000.02,0000.41,-000.03,-000.08,-000.11,24.4,00.0,0677.0,31.0
2020-05-17T01:37:00Z,00000380,01000600,0000.53,0000.42,0000.47,0000.67,-000.09,0000.09,0000.07,0000.01,0000.13,24.4,00.0,0677.1,31.0
2020-05-17T01:38:00Z,00000380,01000600,0000.42,0000.68,-000.33,-000.23,-000.19,0000.42,-000.02,-000.01,0000.06,24.4,00.0,0677.0,31.0
2020-05-17T01:39:00Z,00000380,01000600,0001.17,0000.70,0000.24,0000.67,-000.16,0000.48,0000.08,0000.08,-000.19,24.3,00.0,0677.0,31.0
2020-05-17T01:40:00Z,00000380,01000600,0000.84,0001.03,0000.34,0000.43,0000.01,0000.39,0000.15,0000.11,0000.18,24.3,00.0,0677.0,31.0
2020-05-17T01:41:00Z,00000380,01000600,0002.09,0001.05,-000.05,0000.51,-000.57,0000.25,-000.01,-000.13,-000.06,24.3,00.0,0677.1,31.0
2020-05-17T01:42:00Z,00000380,01000600,0001.31,0000.57,0000.35,0001.00,-000.26,0000.35,-000.05,-000.02,0000.11,24.3,00.0,0677.1,31.0
2020-05-17T01:43:00Z,00000380,01000600,0001.15,0000.16,0000.42,0000.49,-000.19,0000.29,0000.11,0000.09,-000.03,24.3,00.0,0677.1,31.0
2020-05-17T01:44:00Z,00000380,01000600,0001.93,0000.45,-000.08,0000.54,-000.40,0000.53,-000.04,0000.08,0000.09,24.3,00.0,0677.1,31.0
2020-05-17T01:45:00Z,00000380,01000600,0000.60,0000.49,0000.04,0000.22,-000.31,0000.23,0000.06,0000.02,-000.02,24.3,00.0,0677.0,31.0
2020-05-17T01:46:00Z,00000380,01000600,0001.13,0000.46,0000.34,0000.29,0000.11,0000.08,0000.03,0000.23,0000.07,24.3,00.0,0677.1,31.0
2020-05-17T01:47:00Z,00000380,01000600,0000.81,0000.10,0000.54,-000.15,-000.22,0000.03,0000.11,-000.01,-000.01,24.3,00.0,0677.1,31.0
2020-05-17T01:48:00Z,00000380,01000600,0000.66,0000.10,0000.06,0000.22,-000.05,0000.04,0000.09,-000.16,0000.05,24.3,00.0,0677.1,31.0
2020-05-17T01:49:00Z,00000380,01000600,0000.84,-000.08,0000.26,-000.49,-000.01,0000.33,0000.09,0000.20,0000.08,24.3,00.0,0677.1,31.0
2020-05-17T01:50:00Z,00000380,01000600,0001.11,0000.40,-000.06,-000.02,-000.19,0000.26,0000.01,0000.15,0000.09,24.3,00.0,0677.1,31.0
2020-05-17T01:51:00Z,00000380,01000600,0000.47,0000.50,-000.08,-000.40,0000.33,0000.33,0000.09,0000.03,-000.13,24.3,00.0,0677.1,31.0
2020-05-17T01:52:00Z,00000380,01000600,0000.13,0000.45,0000.22,0000.53,-000.16,0000.12,-000.02,-000.03,0000.11,24.3,00.0,0677.1,31.0
2020-05-17T01:53:00Z,00000380,01000600,0000.24,0000.72,0000.13,-000.02,0000.25,0000.10,0000.06,-000.07,-000.00,24.3,00.0,0677.1,31.0
2020-05-17T01:54:00Z,00000380,01000600,0001.79,0000.02,-000.16,0000.51,0000.12,0000.50,0000.04,0000.18,0000.27,24.3,00.0,0677.1,31.0
2020-05-17T01:55:00Z,00000380,01000600,-000.07,-000.15,0000.02,0000.63,-000.22,-000.14,0000.02,0000.02,-000.08,24.3,00.0,0677.1,31.0
2020-05-17T01:56:00Z,00000380,01000600,0000.67,0000.16,0000.07,0000.05,0000.08,0000.19,0000.02,0000.08,0000.11,24.3,00.0,0677.1,31.0
2020-05-17T01:57:00Z,00000380,41000600,,,,,,,,,,24.3,00.0,0677.1,31.0
2020-05-17T01:58:00Z,00000380,61000600,,,,,,,,,,24.4,00.0,0676.1,31.0
2020-05-17T01:59:00Z,00000380,21000600,,,,,,,,,,24.5,00.0,0676.1,31.0
2020-05-17T02:00:00Z,00000380,21000600,,,,,,,,,,24.5,00.0,0676.1,31.0
2020-05-17T02:01:00Z,00000380,21000600,,,,,,,,,,24.5,00.0,0676.1,31.0
2020-05-17T02:02:00Z,00000380,21000600,,,,,,,,,,24.5,00.0,0676.1,31.0
2020-05-17T02:03:00Z,00000380,61000600,,,,,,,,,,24.5,00.0,0676.1,31.0
2020-05-17T02:04:00Z,00000380,41000600,0001.33,-000.22,0000.50,0000.03,0000.06,0000.22,-000.01,-000.04,0000.06,24.3,00.0,0677.0,31.0
2020-05-17T02:05:00Z,00000380,01000600,0001.17,-000.07,0000.25,0001.17,-000.00,-000.31,0000.12,0000.01,0000.20,24.3,00.0,0677.1,30.9
2020-05-17T02:06:00Z,00000380,01000600,-000.12,0000.06,0000.72,0000.84,-000.22,0000.40,0000.03,0000.11,-000.09,24.3,00.0,0677.1,31.0
2020-05-17T02:07:00Z,00000380,01000600,0000.09,0000.33,-000.08,0001.18,0000.24,0000.46,0000.22,0000.09,0000.17,24.3,00.0,0677.1,31.0
2020-05-17T02:08:00Z,00000380,01000600,0000.47,0000.40,0000.02,0001.01,0000.25,-000.24,-000.14,-000.02,-000.13,24.3,00.0,0677.1,31.0
2020-05-17T02:09:00Z,00000380,01000600,0001.41,0000.83,0000.41,0001.00,0000.48,0000.29,0000.09,0000.16,-000.08,24.3,00.0,0677.1,31.0
2020-05-17T02:10:00Z,00000380,01000600,0001.58,-000.17,0000.18,0000.69,0000.03,0000.28,0000.05,-000.17,0000.12,24.2,00.0,0677.1,31.0
2020-05-17T02:11:00Z,00000380,01000600,0000.50,0000.16,0000.46,0000.66,0000.17,-000.23,0000.01,0000.12,0000.05,24.2,00.0,0677.2,31.0
2020-05-17T02:12:00Z,00000380,01000600,0001.45,0000.64,0000.18,0000.57,0000.51,-000.11,0000.06,-000.02,0000.00,24.2,00.0,0677.2,31.0
2020-05-17T02:13:00Z,00000380,01000600,0000.75,0000.33,-000.01,0000.73,0000.04,-000.01,-000.12,-000.04,-000.12,24.2,00.0,0677.2,31.0
2020-05-17T02:14:00Z,00000380,01000600,0001.22,0000.72,0000.53,0000.46,0000.22,-000.08,0000.15,0000.10,0000.10,24.2,00.0,0677.2,31.0
2020-05-17T02:15:00Z,00000380,01000600,0001.28,0000.50,0000.81,0001.28,0000.07,0000.34,-000.07,-000.10,-000.13,24.2,00.0,0677.2,31.0
2020-05-17T02:16:00Z,00000380,01000600,0000.95,0000.56,0000.42,0000.14,-000.20,-000.02,-000.08,0000.06,0000.19,24.2,00.0,0677.2,31.0
2020-05-17T02:17:00Z,00000380,01000600,0000.12,0000.47,-000.19,0000.73,-000.09,0000.14,0000.20,0000.04,0000.15,24.2,00.0,0677.2,31.0
2020-05-17T02:18:00Z,00000380,01000600,-000.26,0000.73,0000.53,0001.45,-000.17,0000.05,0000.04,0000.15,-000.12,24.2,00.0,0677.2,31.0
2020-05-17T02:19:00Z,00000380,01000600,0001.14,0000.04,0000.12,0000.47,0000.20,-000.45,0000.23,0000.04,0000.15,24.2,00.0,0677.2,31.0
2020-05-17T02:20:00Z,00000380,01000600,0000.82,0000.70,0000.35,-000.18,0000.02,0000.04,-000.17,0000.15,0000.14,24.1,00.0,0677.2,31.0
2020-05-17T02:21:00Z,00000380,01000600,0001.14,0000.13,0000.41,-000.06,0000.17,0000.27,0000.18,0000.13,-000.07,24.2,00.0,0677.2,31.0
2020-05-17T02:22:00Z,00000380,01000600,0001.19,0000.56,0000.54,0000.53,0000.10,-000.32,0000.01,-000.01,-000.02,24.1,00.0,0677.2,31.0
2020-05-17T02:23:00Z,00000380,01000600,0001.63,0000.37,-000.12,-000.21,0000.09,0000.20,0000.09,-000.03,0000.11,24.1,00.0,0677.2,30.9
2020-05-17T02:24:00Z,00000380,01000600,0001.52,0000.68,-000.13,0000.59,0000.56,-000.06,0000.04,-000.04,-000.01,24.1,00.0,0677.2,30.9
2020-05-17T02:25:00Z,00000380,01000600,0000.52,0000.04,0000.56,0000.46,0000.22,0000.21,-000.05,0000.13,0000.02,24.1,00.0,0677.2,31.0
2020-05-17T02:26:00Z,00000380,01000600,0000.55,0000.11,0000.88,0000.02,0000.05,0000.00,0000.09,0000.01,-000.08,24.1,00.0,0677.2,31.0
2020-05-17T02:27:00Z,00000380,01000600,0000.15,0000.16,-000.53,0000.86,0000.23,-000.52,-000.02,0000.07,0000.15,24.1,00.0,0677.2,31.0
2020-05-17T02:28:00Z,00000380,01000600,0000.62,0000.31,0000.72,0000.55,0000.33,0000.11,0000.12,0000.09,0000.04,24.1,00.0,0677.2,31.0
2020-05-17T02:29:00Z,00000380,01000600,0000.67,-000.15,0000.54,-000.29,0000.18,0000.04,0000.08,0000.01,-000.01,24.1,00.0,0677.2,30.9
2020-05-17T02:30:00Z,00000380,01000600,0000.34,0000.05,0000.99,-000.08,0000.27,-000.02,0000.12,0000.20,0000.08,24.1,00.0,0677.2,30.9
2020-05-17T02:31:00Z,00000380,01000600,0000.68,-000.01,0000.48,0000.29,0000.29,0000.34,-000.05,-000.16,-000.02,24.1,00.0,0677.2,30.9
2020-05-17T02:32:00Z,00000380,01000600,0000.08,-000.19,0001.06,0000.55,0000.41,-000.20,0000.08,0000.18,0000.07,24.1,00.0,0677.2,30.9
2020-05-17T02:33:00Z,00000380,01000600,0000.45,0000.37,0000.12,-000.59,0000.10,-000.19,-000.09,-000.25,-000.21,24.1,00.0,0677.2,31.0
2020-05-17T02:34:00Z,00000380,01000600,0000.97,0000.42,-000.02,-000.38,0000.05,0000.15,-000.11,-000.00,0000.11,24.1,00.0,0677.1,30.9
2020-05-17T02:35:00Z,00000380,01000600,-000.25,0000.85,0000.09,0000.63,0000.20,-000.23,0000.29,0000.25,0000.10,24.0,00.0,0677.1,30.9
2020-05-17T02:36:00Z,00000380,01000600,0000.78,-000.16,0000.24,-000.22,-000.04,-000.10,0000.10,-000.02,0000.02,24.0,00.0,0677.1,31.0
2020-05-17T02:37:00Z,00000380,01000600,0000.51,0000.03,0000.83,0001.59,0000.45,0000.15,-000.03,0000.11,0000.22,24.0,00.0,0677.2,30.9
2020-05-17T02:38:00Z,00000380,01000600,0000.30,0000.51,0000.43,0000.72,0000.24,-000.35,0000.07,-000.04,0000.01,24.0,00.0,0677.1,30.9
2020-05-17T02:39:00Z,00000380,01000600,0001.16,0000.01,0000.23,0001.41,0000.68,-000.25,0000.03,0000.28,0000.11,24.0,00.0,0677.1,31.0
2020-05-17T02:40:00Z,00000380,01000600,0000.81,0000.02,0000.48,0000.68,0000.07,0000.20,0000.05,0000.02,-000.06,24.0,00.0,0677.1,30.9
2020-05-17T02:41:00Z,00000380,01000600,0000.45,0000.00,0000.04,0000.50,-000.06,-000.21,0000.11,0000.07,0000.14,24.0,00.0,0677.1,30.9
2020-05-17T02:42:00Z,00000380,01000600,0000.18,0000.01,0000.00,0000.63,0000.26,-000.09,0000.05,-000.02,-000.24,24.0,00.0,0677.1,30.9
2020-05-17T02:43:00Z,00000380,01000600,0000.39,-000.19,-000.02,0001.17,0000.10,-000.44,0000.08,0000.12,0000.15,24.0,00.0,0677.1,30.9
2020-05-17T02:44:00Z,00000380,01000600,0000.35,0000.25,0000.59,0000.18,0000.01,-000.43,0000.04,-000.12,0000.01,24.0,00.0,0677.2,30.9
2020-05-17T02:45:00Z,00000380,01000600,0000.32,0000.52,0000.34,0000.53,0000.28,-000.15,-000.17,0000.04,-000.08,24.0,00.0,0677.2,30.9
2020-05-17T02:46:00Z,00000380,01000600,0000.93,0000.30,0000.29,0001.29,0000.11,-000.16,0000.21,0000.07,0000.10,24.0,00.0,0677.1,30.9
2020-05-17T02:47:00Z,00000380,01000600,0001.38,0000.36,0000.24,0001.50,0000.30,-000.34,-000.16,-000.27,-000.14,24.0,00.0,0677.2,30.9
2020-05-17T02:48:00Z,00000380,01000600,-000.12,0000.53,0000.29,0000.57,0000.28,-000.36,-000.00,0000.23,0000.12,24.0,00.0,0677.2,30.9
2020-05-17T02:49:00Z,00000380,01000600,0000.61,0000.45,0000.20,0001.12,0000.09,-000.45,0000.06,-000.02,0000.14,24.0,00.0,0677.2,30.9
2020-05-17T02:50:00Z,00000380,01000600,0001.38,-000.09,0000.95,0000.75,0000.12,-000.06,0000.18,0000.26,0000.02,23.9,00.0,0677.2,30.9
2020-05-17T02:51:00Z,00000380,01000600,0000.89,0000.21,0000.41,0000.34,0000.19,0000.24,0000.05,-000.10,0000.06,23.9,00.0,0677.2,30.9
2020-05-17T02:52:00Z,00000380,01000600,0001.26,0000.73,0000.62,0001.67,0000.10,-000.02,-000.11,0000.22,-000.09,23.9,00.0,0677.2,31.0
2020-05-17T02:53:00Z,00000380,01000600,0001.35,0000.26,0000.90,0000.20,0000.54,0000.03,0000.32,0000.10,0000.00,23.9,00.0,0677.2,30.9
2020-05-17T02:54:00Z,00000380,01000600,-000.69,0000.39,-000.35,0000.82,0000.52,-000.54,-000.21,-000.02,0000.17,23.9,00.0,0677.2,30.9
2020-05-17T02:55:00Z,00000380,01000600,0000.89,0000.21,-000.32,0000.41,0000.26,0000.04,0000.06,-000.02,-000.08,23.9,00.0,0677.2,30.9
2020-05-17T02:56:00Z,00000380,01000600,0000.51,0000.52,0000.80,0000.30,0000.60,0000.19,0000.14,0000.04,0000.09,23.9,00.0,0677.2,30.9
2020-05-17T02:57:00Z,00000380,41000600,,,,,,,,,,23.9,00.0,0677.2,30.9
2020-05-17T02:58:00Z,00000380,61000600,,,,,,,,,,24.1,00.0,0676.2,30.9
2020-05-17T02:59:00Z,00000380,21000600,,,,,,,,,,24.2,00.0,0676.2,30.9
2020-05-17T03:00:00Z,00000380,21000600,,,,,,,,,,24.2,00.0,0676.2,30.9
2020-05-17T03:01:00Z,00000380,21000600,,,,,,,,,,24.2,00.0,0676.2,30.9
2020-05-17T03:02:00Z,00000380,21000600,,,,,,,,,,24.2,00.0,0676.2,30.9
2020-05-17T03:03:00Z,00000380,61000600,,,,,,,,,,24.2,00.0,0676.2,31.0
2020-05-17T03:04:00Z,00000380,41000600,0000.48,0000.02,-000.04,0001.07,0000.44,0000.27,-000.05,0000.04,-000.01,24.0,00.0,0677.1,30.9
2020-05-17T03:05:00Z,00000380,01000600,0000.75,0000.14,0000.05,-000.07,0000.09,-000.10,-000.05,-000.02,0000.07,23.9,00.0,0677.2,30.9
2020-05-17T03:06:00Z,00000380,01000600,0000.63,0000.47,0000.66,0000.32,0000.28,0000.57,0000.12,-000.05,-000.06,23.9,00.0,0677.2,30.9
2020-05-17T03:07:00Z,00000380,01000600,0000.47,-000.09,0000.62,0000.45,0000.50,-000.06,0000.09,-000.00,0000.09,23.9,00.0,0677.2,30.9
2020-05-17T03:08:00Z,00000380,01000600,0000.28,-000.19,-000.09,0000.50,0000.50,0000.19,0000.05,0000.11,0000.06,23.9,00.0,0677.2,30.9
2020-05-17T03:09:00Z,00000380,01000600,0000.41,0000.68,0000.24,-000.06,0000.29,0000.18,0000.13,-000.03,0000.18,23.9,00.0,0677.2,30.9
2020-05-17T03:10:00Z,00000380,01000600,0000.86,0000.40,0000.76,0000.01,0000.30,0000.10,0000.02,0000.05,0000.01,23.9,00.0,0677.2,30.9